Location: ?????
(37.7324°N, 23.9257°E)
Time: 21:15:15
(UTC+00:00)

Genesis I - Pass Details

Date: 29 November 2020
Orbit: 494 x 527 km, 64.5° (Epoch: 19 January)

Event Time Altitude Azimuth Distance (km) Brightness Sun altitude
Exits shadow 03:50:35 38° 266° (W) 766 3.5 -17.2°
Maximum altitude 03:51:25 46° 304° (NW) 679 3.3 -17.0°
Drops below altitude 10° 03:55:07 10° 19° (NNE) 1,715 5.9 -16.3°
Sets 03:57:22 0° 26° (NNE) 2,609 6.9 -15.9°
